FW6591 Weather Reports


Display with metric or nautical units.
time (UTC)temp
F
wind
direction
speed
MPH
gust
MPH
rain 1hr
in
rain 24hr
in
rain mn
in
humidity
%
barometer
mb
20260505180051 51 114 6.0 12.0 0.35 0.74 0.74 93 1015.1
20260505174547 51 119 8.0 17.0 0.41 0.66 0.66 92 1015.2
20260505173049 51 126 10.0 18.0 0.46 0.59 0.59 92 1015.2
20260505171549 51 133 12.0 18.0 0.39 0.49 0.49 92 1015.3
20260505164553 52 119 7.0 11.0 0.18 0.24 0.24 93 1015.5
20260505163049 52 133 2.0 7.0 0.09 0.12 0.12 93 1015.2
20260505161552 52 83 4.0 14.0 0.07 0.10 0.10 93 1014.4
20260505153059 52 113 4.0 12.0 0.00 0.03 0.03 93 1014.2
20260505151559 52 110 4.0 9.0 0.00 0.03 0.03 93 1014.0
20260505130105 53 90 4.0 10.0 0.00 0.00 0.00 92 1015.3
20260505124556 53 131 3.0 9.0 0.00 0.00 0.00 91 1015.2
20260505123055 53 102 4.0 10.0 0.00 0.00 0.00 91 1015.3
20260505121608 53 132 4.0 10.0 0.00 0.00 0.00 90 1015.6
20260505120048 54 99 5.0 9.0 0.00 0.00 0.00 90 1015.7
20260505114545 54 133 5.0 9.0 0.00 0.00 0.00 91 1015.6
20260505113050 54 128 5.0 9.0 0.00 0.00 0.00 92 1015.8
20260505111549 54 136 3.0 9.0 0.00 0.00 0.00 92 1016.2
20260505101552 54 116 4.0 11.0 0.00 0.00 0.00 92 1017.1
20260505100053 54 99 4.0 9.0 0.00 0.00 0.00 91 1017.3
20260505094549 54 113 4.0 9.0 0.00 0.00 0.00 90 1017.5
20260505093051 55 41 2.0 7.0 0.00 0.00 0.00 88 1017.4
20260505091544 55 66 4.0 7.0 0.00 0.00 0.00 87 1017.7
20260505084553 56 246 3.0 9.0 0.00 0.00 0.00 84 1017.9
20260505083057 55 137 4.0 7.0 0.00 0.00 0.00 85 1018.0
20260505081551 55 167 2.0 6.0 0.00 0.00 0.00 87 1018.1
20260505080053 55 85 0.0 5.0 0.00 0.00 0.00 88 1018.3
20260505074543 55 84 1.0 4.0 0.00 0.00 0.00 89 1018.4
20260505073044 55 145 1.0 4.0 0.00 0.00 0.00 89 1018.4
20260505071539 55 81 2.0 6.0 0.00 0.00 0.00 86 1018.3
20260505070044 56 104 2.0 6.0 0.00 0.00 0.00 86 1018.1
20260505064544 56 180 1.0 5.0 0.00 0.00 0.00 87 1018.0
20260505063046 56 0 0.0 2.0 0.00 0.00 0.00 86 1017.9
20260505061546 56 134 1.0 4.0 0.00 0.00 0.00 88 1017.6
20260505060048 56 108 1.0 3.0 0.00 0.00 0.00 88 1017.6
20260505054544 55 122 1.0 3.0 0.00 0.00 0.00 86 1017.6
20260505053045 55 0 0.0 2.0 0.00 0.00 0.00 85 1017.4
20260505051543 55 159 1.0 3.0 0.00 0.00 0.00 84 1017.4
20260505041544 57 0 0.0 4.0 0.00 0.00 0.00 78 1017.0
20260505040049 57 155 1.0 5.0 0.00 0.00 0.00 78 1017.0
20260505034544 57 234 4.0 6.0 0.00 0.00 0.00 82 1016.8
20260505033102 57 229 3.0 6.0 0.00 0.00 0.00 85 1016.6
20260505031546 57 215 3.0 7.0 0.00 0.00 0.00 85 1016.5
20260505030048 57 191 1.0 3.0 0.00 0.00 0.00 85 1016.4
20260505024544 57 183 1.0 2.0 0.00 0.00 0.00 85 1016.5
20260505023056 57 188 1.0 5.0 0.00 0.00 0.00 85 1016.4
20260505021539 57 173 1.0 3.0 0.00 0.00 0.00 85 1016.3
20260505020048 57 191 0.0 5.0 0.00 0.00 0.00 84 1016.4
20260505014547 57 219 1.0 4.0 0.00 0.00 0.00 85 1016.4
20260505013047 57 131 2.0 4.0 0.00 0.00 0.00 85 1016.7
20260505011544 57 130 2.0 4.0 0.00 0.00 0.00 85 1016.7
20260505010057 57 155 0.0 2.0 0.00 0.00 0.00 84 1016.7
20260505004551 58 145 1.0 3.0 0.00 0.00 0.00 84 1016.8
20260505003045 58 163 1.0 3.0 0.00 0.00 0.00 84 1017.0
20260505001544 58 105 1.0 3.0 0.00 0.00 0.00 84 1016.9
20260505000053 58 117 2.0 7.0 0.00 0.00 0.00 84 1017.0
20260504234609 59 133 2.0 5.0 0.00 0.00 0.00 84 1017.1
20260504233052 59 153 2.0 6.0 0.00 0.00 0.00 83 1017.1
20260504231555 59 171 2.0 5.0 0.00 0.00 0.00 83 1017.2
20260504230052 59 0 0.0 3.0 0.00 0.00 0.00 85 1017.2
20260504224544 59 119 2.0 3.0 0.00 0.00 0.00 87 1017.1
20260504223044 59 0 1.0 3.0 0.00 0.00 0.00 87 1017.1
20260504221547 60 155 1.0 4.0 0.00 0.00 0.00 86 1017.0
20260504220042 60 176 1.0 6.0 0.00 0.00 0.00 87 1017.3
20260504214550 60 140 1.0 6.0 0.00 0.00 0.00 87 1017.5
20260504213051 60 139 2.0 7.0 0.00 0.00 0.00 87 1017.6
20260504211544 60 140 2.0 8.0 0.00 0.00 0.00 88 1017.4
20260504210053 60 136 3.0 6.0 0.00 0.00 0.00 88 1017.6
20260504204625 61 179 3.0 7.0 0.00 0.00 0.00 88 1017.6
20260504203051 61 161 5.0 9.0 0.00 0.00 0.00 88 1017.6
20260504201549 61 178 3.0 8.0 0.00 0.00 0.00 89 1017.4
20260504200053 61 189 2.0 7.0 0.00 0.00 0.00 89 1017.3
20260504194550 60 173 2.0 9.0 0.00 0.00 0.00 89 1017.2
20260504193049 60 184 4.0 9.0 0.00 0.00 0.00 90 1016.9
20260504191546 60 201 3.0 9.0 0.00 0.00 0.00 90 1016.7
20260504190055 59 219 3.0 10.0 0.00 0.00 0.00 90 1016.5
20260504184559 59 194 4.0 9.0 0.00 0.00 0.00 88 1016.5
20260504183053 60 134 3.0 8.0 0.00 0.00 0.00 87 1016.5
20260504181542 61 163 5.0 8.0 0.00 0.00 0.00 84 1016.3